FW1688 Weather Reports


Display with metric or nautical units.
time (UTC)temp
F
wind
direction
speed
MPH
gust
MPH
rain 1hr
in
rain 24hr
in
rain mn
in
humidity
%
barometer
mb
20200328113029 64 85 0.0 0.0 0.00 0.00 0.00 91 1017.1
20200328111530 65 85 0.0 0.0 0.00 0.00 0.00 91 1016.9
20200328110006 65 85 0.0 0.0 0.00 0.00 0.00 90 1016.7
20200328104504 65 85 0.0 0.0 0.00 0.00 0.00 90 1016.6
20200328103003 65 85 0.0 0.0 0.00 0.00 0.00 89 1016.6
20200328101701 66 85 0.0 0.0 0.00 0.00 0.00 88 1016.4
20200328100203 67 85 0.0 0.0 0.00 0.00 0.00 88 1016.2
20200328094724 67 85 0.0 0.0 0.00 0.00 0.00 87 1016.1
20200328093156 67 86 0.0 0.0 0.00 0.00 0.00 86 1016.0
20200328091643 68 85 0.0 0.0 0.00 0.00 0.00 87 1016.0
20200328090115 67 86 0.0 0.0 0.00 0.00 0.00 85 1015.8
20200328084620 68 85 0.0 0.0 0.00 0.00 0.00 86 1015.8
20200328083110 67 86 0.0 0.0 0.00 0.00 0.00 84 1015.8
20200328081632 68 86 0.0 0.0 0.00 0.00 0.00 83 1015.8
20200328080120 69 86 0.0 0.0 0.00 0.00 0.00 82 1015.9
20200328074626 69 85 0.0 0.0 0.00 0.00 0.00 82 1016.0
20200328073145 70 86 0.0 0.0 0.00 0.00 0.00 81 1016.0
20200328071658 71 86 0.0 0.0 0.00 0.00 0.00 80 1016.2
20200328070047 71 84 0.0 1.0 0.00 0.00 0.00 81 1016.3
20200328064544 71 119 0.0 0.0 0.00 0.00 0.00 81 1016.4
20200328063122 72 104 0.0 0.0 0.00 0.00 0.00 80 1016.6
20200328061636 72 83 0.0 1.0 0.00 0.00 0.00 80 1016.6
20200328060046 72 98 0.0 0.0 0.00 0.00 0.00 79 1016.8
20200328054537 72 129 0.0 0.0 0.00 0.00 0.00 79 1017.2
20200328053056 73 94 0.0 1.0 0.00 0.00 0.00 79 1017.3
20200328051619 73 118 0.0 3.0 0.00 0.00 0.00 78 1017.4
20200328050048 73 98 0.0 2.0 0.00 0.00 0.00 78 1017.5
20200328044523 73 109 0.0 0.0 0.00 0.00 0.00 78 1017.6
20200328043018 73 86 0.0 1.0 0.00 0.00 0.00 79 1017.8
20200328041516 73 117 0.0 1.0 0.00 0.00 0.00 78 1017.8
20200328040019 74 143 0.0 1.0 0.00 0.00 0.00 78 1017.9
20200328034514 74 77 0.0 2.0 0.00 0.00 0.00 78 1017.9
20200328033014 74 110 0.0 1.0 0.00 0.00 0.00 78 1017.8
20200328031511 74 129 0.0 3.0 0.00 0.00 0.00 78 1017.9
20200328030009 74 113 0.0 1.0 0.00 0.00 0.00 79 1018.0
20200328024517 74 116 0.0 1.0 0.00 0.00 0.00 79 1017.9
20200328023012 74 105 0.0 0.0 0.00 0.00 0.00 79 1017.8
20200328021509 75 87 0.0 1.0 0.00 0.00 0.00 78 1017.9
20200328020007 75 112 0.0 1.0 0.00 0.00 0.00 77 1017.8
20200328014519 75 127 0.0 2.0 0.00 0.00 0.00 77 1017.5
20200328013007 75 115 0.0 2.0 0.00 0.00 0.00 77 1017.3
20200328011653 75 114 0.0 2.0 0.00 0.00 0.00 76 1017.2
20200328010147 76 114 0.0 2.0 0.00 0.00 0.00 76 1016.9
20200328004623 76 108 0.0 2.0 0.00 0.00 0.00 76 1016.8
20200328003136 76 98 0.0 2.0 0.00 0.00 0.00 75 1016.8
20200328001632 76 120 0.0 2.0 0.00 0.00 0.00 75 1016.7
20200328000140 77 134 0.0 5.0 0.00 0.00 0.00 73 1016.6
20200327234638 77 69 0.0 5.0 0.00 0.00 0.00 72 1016.4
20200327233110 78 97 1.0 6.0 0.00 0.00 0.00 69 1016.4
20200327231733 79 115 0.0 5.0 0.00 0.00 0.00 68 1016.3
20200327230133 79 90 0.0 5.0 0.00 0.00 0.00 67 1016.2
20200327224656 80 165 1.0 5.0 0.00 0.00 0.00 66 1016.2
20200327223159 80 129 1.0 7.0 0.00 0.00 0.00 65 1016.1
20200327221839 81 131 1.0 5.0 0.00 0.00 0.00 62 1016.0
20200327220227 81 128 1.0 7.0 0.00 0.00 0.00 63 1015.9
20200327214806 82 141 1.0 11.0 0.00 0.00 0.00 63 1015.8
20200327213122 82 136 2.0 10.0 0.00 0.00 0.00 62 1015.7
20200327211756 82 97 2.0 6.0 0.00 0.00 0.00 64 1015.7
20200327210254 83 153 2.0 10.0 0.00 0.00 0.00 62 1015.7
20200327204554 82 110 2.0 8.0 0.00 0.00 0.00 64 1015.6
20200327203124 83 143 2.0 9.0 0.00 0.00 0.00 62 1015.6
20200327201731 84 118 2.0 8.0 0.00 0.00 0.00 62 1015.6
20200327200146 83 117 2.0 10.0 0.00 0.00 0.00 63 1015.7
20200327194622 83 120 1.0 8.0 0.00 0.00 0.00 63 1015.7
20200327193055 83 105 1.0 12.0 0.00 0.00 0.00 63 1015.8
20200327191616 85 106 2.0 8.0 0.00 0.00 0.00 61 1015.9
20200327190156 86 131 1.0 9.0 0.00 0.00 0.00 60 1015.9
20200327184657 85 141 3.0 9.0 0.00 0.00 0.00 59 1016.0
20200327183108 85 101 2.0 9.0 0.00 0.00 0.00 61 1016.1
20200327181655 85 127 3.0 11.0 0.00 0.00 0.00 62 1016.1
20200327180117 86 70 1.0 8.0 0.00 0.00 0.00 57 1016.2
20200327174547 85 149 2.0 8.0 0.00 0.00 0.00 57 1016.3
20200327173053 86 172 2.0 8.0 0.00 0.00 0.00 57 1016.4
20200327171613 86 155 0.0 7.0 0.00 0.00 0.00 55 1016.4
20200327170054 86 106 1.0 7.0 0.00 0.00 0.00 55 1016.5
20200327164614 86 104 1.0 9.0 0.00 0.00 0.00 55 1016.6
20200327163051 86 152 1.0 8.0 0.00 0.00 0.00 57 1016.7
20200327161606 85 63 2.0 6.0 0.00 0.00 0.00 58 1016.6
20200327160126 85 88 0.0 6.0 0.00 0.00 0.00 60 1016.5
20200327154549 85 111 1.0 6.0 0.00 0.00 0.00 57 1016.8
20200327153052 83 46 0.0 2.0 0.00 0.00 0.00 64 1016.8
20200327151557 83 261 0.0 2.0 0.00 0.00 0.00 65 1016.9
20200327150228 82 223 0.0 2.0 0.00 0.00 0.00 67 1016.8
20200327144543 83 170 1.0 4.0 0.00 0.00 0.00 68 1016.8
20200327143056 82 136 0.0 2.0 0.00 0.00 0.00 68 1016.7
20200327141551 81 279 0.0 0.0 0.00 0.00 0.00 71 1016.6
20200327140028 81 149 0.0 1.0 0.00 0.00 0.00 72 1016.4
20200327134544 80 136 0.0 1.0 0.00 0.00 0.00 73 1016.3
20200327133028 80 151 0.0 0.0 0.00 0.00 0.00 75 1016.3
20200327131513 78 170 0.0 0.0 0.00 0.00 0.00 81 1016.2
20200327130020 75 235 0.0 0.0 0.00 0.00 0.00 87 1016.1
20200327124506 74 221 0.0 0.0 0.00 0.00 0.00 91 1016.1
20200327123004 73 95 0.0 0.0 0.00 0.00 0.00 94 1016.1
20200327121528 72 95 0.0 0.0 0.00 0.00 0.00 93 1015.7
20200327114501 69 95 0.0 0.0 0.00 0.00 0.00 94 1015.3